Wichita, KS

3:07 AM CST on February 28, 2017 (GMT -0600)
Wichita Eisenhower National Airport

Weather History for KICT - November, 2013

Change the Weather History Date:

Friday, November 1, 2013

  Actual Average Record
Temperature  
Mean Temperature 53 °F 52 °F  
Max Temperature 65 °F 64 °F 82 °F (1893)
Min Temperature 41 °F 41 °F 20 °F (1966)
Degree Days  
Heating Degree Days 12 13  
Month to date heating degree days 12 13  
Since 1 July heating degree days 266 299  
Cooling Degree Days 0 0  
Month to date cooling degree days 0 0  
Year to date cooling degree days 1778 1684  
Growing Degree Days 3 (Base 50)    
Moisture  
Dew Point 37 °F    
Average Humidity 59    
Maximum Humidity 82    
Minimum Humidity 36    
Precipitation  
Precipitation 0.00 in 0.05 in 1.86 in (1948)
Month to date precipitation 0.00 0.05  
Year to date precipitation 39.25 30.06  
Snow  
Snow 0.00 in 0.00 in 0.60 in (1951)
Month to date snowfall 0.0 0.0  
Since 1 July snowfall T 0.1  
Since 1 September snowfall T 0.1  
Snow Depth 0.00 in    
Sea Level Pressure  
Sea Level Pressure 29.91 in    
Wind  
Wind Speed 11 mph (NW)    
Max Wind Speed 26 mph    
Max Gust Speed 36 mph    
Visibility 10 miles    
Events      
T = Trace of Precipitation, MM = Missing Value Source: NWS Daily Summary

Daily Weather History Graph

Daily Weather History Graph

Search for Another Location

Airport or City:

Trip Planner

Search our weather history database for the weather conditions in past years. The results will help you decide how hot, cold, wet, or windy it might be!

Date:

Astronomy

Nov. 01, 2013 Rise Set
Actual Time 7:55 AM CDT 6:30 PM CDT
Civil Twilight 7:27 AM CDT 6:58 PM CDT
Nautical Twilight 6:57 AM CDT 7:28 PM CDT
Astronomical Twilight 6:26 AM CDT 7:59 PM CDT
Moon 5:50 AM CDT (11/1) 5:23 PM CDT (11/1)
Length of Visible Light 11h 30m
Length of Day
10h 35m
Waning Crescent, 4% of the Moon is Illuminated
Nov 1
Waning Crescent
Nov 3
New
Nov 9
First Quarter
Nov 17
Full
Nov 25
Last Quarter

Hourly Weather History & Observations

Time (CDT) Temp. Windchill Dew Point Humidity Pressure Visibility Wind Dir Wind Speed Gust Speed Precip Events Conditions
12:53 AM 48.0 °F - 37.9 °F 68% 29.76 in 10.0 mi West 9.2 mph - N/A   Clear
1:53 AM 50.0 °F - 37.0 °F 61% 29.77 in 10.0 mi WNW 11.5 mph - N/A   Partly Cloudy
2:53 AM 48.9 °F - 36.0 °F 61% 29.78 in 10.0 mi WNW 9.2 mph - N/A   Partly Cloudy
3:53 AM 45.0 °F 43.5 °F 37.0 °F 74% 29.78 in 10.0 mi NNW 3.5 mph - N/A   Scattered Clouds
4:53 AM 44.1 °F 42.5 °F 37.0 °F 76% 29.79 in 10.0 mi West 3.5 mph - N/A   Partly Cloudy
5:53 AM 45.0 °F 43.5 °F 36.0 °F 71% 29.81 in 10.0 mi NW 3.5 mph - N/A   Clear
6:53 AM 43.0 °F - 35.1 °F 74% 29.82 in 10.0 mi Calm Calm - N/A   Partly Cloudy
7:53 AM 42.1 °F 40.2 °F 37.9 °F 85% 29.84 in 10.0 mi SW 3.5 mph - N/A   Mostly Cloudy
8:53 AM 48.9 °F - 39.9 °F 71% 29.86 in 10.0 mi WNW 5.8 mph - N/A   Mostly Cloudy
9:53 AM 52.0 °F - 39.0 °F 61% 29.89 in 10.0 mi NNW 12.7 mph - N/A   Scattered Clouds
10:53 AM 55.9 °F - 39.9 °F 55% 29.90 in 10.0 mi NNW 11.5 mph - 0.00 in   Scattered Clouds
11:53 AM 60.1 °F - 39.9 °F 47% 29.91 in 10.0 mi NNW 18.4 mph - 0.00 in   Partly Cloudy
12:53 PM 62.1 °F - 39.9 °F 44% 29.91 in 10.0 mi NNW 20.7 mph - N/A   Partly Cloudy
1:53 PM 63.0 °F - 39.0 °F 41% 29.91 in 10.0 mi NNW 19.6 mph 26.5 mph 0.00 in   Scattered Clouds
2:53 PM 64.0 °F - 39.0 °F 40% 29.91 in 10.0 mi NW 24.2 mph 31.1 mph N/A   Mostly Cloudy
3:53 PM 63.0 °F - 36.0 °F 37% 29.93 in 10.0 mi NNW 21.9 mph 29.9 mph N/A   Scattered Clouds
4:53 PM 61.0 °F - 36.0 °F 39% 29.95 in 10.0 mi NW 13.8 mph - N/A   Scattered Clouds
5:53 PM 60.1 °F - 36.0 °F 41% 29.96 in 10.0 mi NW 11.5 mph - N/A   Scattered Clouds
6:53 PM 54.0 °F - 37.0 °F 53% 29.99 in 10.0 mi NW 8.1 mph - N/A   Scattered Clouds
7:53 PM 51.1 °F - 37.9 °F 61% 30.02 in 10.0 mi WNW 8.1 mph - N/A   Scattered Clouds
8:45 PM 55.4 °F - 35.6 °F 47% 30.03 in 10.0 mi North 10.4 mph 26.5 mph N/A   Mostly Cloudy
8:53 PM 55.0 °F - 36.0 °F 49% 30.04 in 10.0 mi North 9.2 mph - N/A   Mostly Cloudy
9:53 PM 46.9 °F - 37.0 °F 68% 30.06 in 10.0 mi NW 9.2 mph - N/A   Partly Cloudy
10:53 PM 46.9 °F - 37.0 °F 68% 30.09 in 10.0 mi NW 5.8 mph - N/A   Partly Cloudy
11:53 PM 46.9 °F - 36.0 °F 66% 30.11 in 10.0 mi NW 9.2 mph - N/A   Clear